Regional Weather Roundup
Issued by NWS

Home | Current Version | Previous Version | Graphics & Text | Print | Product List | Glossary On
Versions: 1 2 3 4 5 6 7 8 9 10 11 12 13 14 15 16 17 18 19 20 21 22 23 24 25 26 27 28 29 30 31 32 33 34 35 36 37 38 39 40 41 42 43 44 45 46 47 48 49 50
000
ASUS43 KLMK 021202
RWRKY
KENTUCKY REGIONAL WEATHER ROUNDUP
NATIONAL WEATHER SERVICE LOUISVILLE KY
700 AM EST MON MAR 02 2015

NOTE "FAIR" INDICATES FEW OR NO CLOUDS BELOW 12,000 FEET
WITH NO SIGNIFICANT WEATHER AND/OR OBSTRUCTIONS TO VISIBILITY.

KYZ001>023-026-027-061>063-070>075-021300-
WESTERN AND SOUTH CENTRAL KENTUCKY

CITY           SKY/WX    TMP DP  RH WIND       PRES   REMARKS
PADUCAH        CLEAR     27  20  75 NE8       30.51S WCI  19
HENDERSON      CLEAR     25  18  74 N6        30.53S WCI  18
OWENSBORO      CLEAR     25  19  77 N5        30.53R WCI  19
HOPKINSVILLE   PTCLDY    28  23  80 N12       30.50R WCI  18
BOWLING GREEN  PTCLDY    29  22  75 N8        30.50R WCI  21
GLASGOW        NOT AVBL
$$

KYZ024-025-028>034-038-045-046-053-021300-
NORTH CENTRAL KENTUCKY

CITY           SKY/WX    TMP DP  RH WIND       PRES   REMARKS
LOUISVILLE/SDF PTCLDY    25  19  78 N8        30.51R WCI  16
LOUISVILLE/LOU CLEAR     26  19  74 N6        30.51R WCI  19
FORT KNOX      CLEAR     24  19  84 NW5       30.47R WCI  18
$$

KYZ035>037-039>044-047>052-055>060-089>105-021300-
NORTHEAST KENTUCKY

CITY           SKY/WX    TMP DP  RH WIND       PRES   REMARKS
LEXINGTON      PTCLDY    25  18  74 N16       30.47R WCI  12
COVINGTON      MOCLDY    22  16  78 NW7       30.47R WCI  13
FRANKFORT      MOCLDY    26  19  74 N5        30.48R WCI  20
$$

KYZ054-064>069-076>088-106>120-021300-
SOUTHEAST KENTUCKY

CITY           SKY/WX    TMP DP  RH WIND       PRES   REMARKS
JACKSON        CLOUDY    31  30  96 VRB6      30.41R FOG     WCI  25
LONDON         CLOUDY    33  29  85 NW10      30.42R WCI  25
SOMERSET       NOT AVBL
MIDDLESBORO    CLOUDY    36  33  88 N8        30.40R WCI  30
MONTICELLO     CLOUDY    33  32  96 N8        30.47R FOG     WCI  26
$$




USA.gov is the U.S. government's official web portal to all federal, state and local government web resources and services.